Weather History for Fairbanks Ft. Wainwright, AK

Change the Weather History Date:

Friday, March 1, 2013

  Actual Average Record
Temperature  
Mean Temperature 6 °F -  
Max Temperature 12 °F 16 °F 30 °F (2002)
Min Temperature 0 °F -1 °F -41 °F (2007)
Degree Days  
Heating Degree Days 59    
Moisture  
Dew Point 4 °F    
Average Humidity 83    
Maximum Humidity 92    
Minimum Humidity 73    
Precipitation  
Precipitation 0.05 in - - ()
Snow  
Snow 0.00 in - - ()
Snow Depth 21.00 in    
Sea Level Pressure  
Sea Level Pressure 29.82 in    
Wind  
Wind Speed 1 mph (East)    
Max Wind Speed 4 mph    
Max Gust Speed -    
Visibility 5 miles    
Events Snow    
Averages and records for this station are not official NWS values.
T = Trace of Precipitation, MM = Missing Value Source: NWS Daily Summary

Daily Weather History Graph

Daily Weather History Graph

Search for Another Location

Airport:

Trip Planner

Search our weather history database for the weather conditions in past years. The results will help you decide how hot, cold, wet, or windy it might be!

Date:

Astronomy

Mar. 01, 2013 Rise Set
Actual Time 7:58 AM AKST 6:08 PM AKST
Civil Twilight 7:08 AM AKST 6:58 PM AKST
Nautical Twilight 6:12 AM AKST 7:54 PM AKST
Astronomical Twilight 5:13 AM AKST 8:53 PM AKST
Moon No Moon Rise 8:00 AM AKST (3/1)
Length of Visible Light 11h 49m
Length of Day
10h 10m
Waning Gibbous, 82% of the Moon is Illuminated
Mar 1
Waning Gibbous
Mar 4
Last Quarter
Mar 11
New
Mar 19
First Quarter
Mar 27
Full

Hourly Weather History & Observations

Time (AKST) Temp. Windchill Dew Point Humidity Pressure Visibility Wind Dir Wind Speed Gust Speed Precip Events Conditions
12:56 AM 1.0 °F -6.7 °F -4.0 °F 79% 29.55 in 10.0 mi South 3.5 mph - N/A   Clear
1:56 AM -0.0 °F - -4.0 °F 83% 29.57 in 10.0 mi Calm Calm - N/A   Clear
2:56 AM 1.9 °F - -2.0 °F 83% 29.59 in 10.0 mi Calm Calm - N/A   Clear
3:56 AM 3.0 °F -4.4 °F -0.9 °F 84% 29.62 in 10.0 mi ESE 3.5 mph - N/A   Partly Cloudy
4:56 AM 6.1 °F - -0.0 °F 76% 29.64 in 10.0 mi Calm Calm - N/A   Partly Cloudy
5:56 AM 3.9 °F - -0.9 °F 80% 29.67 in 10.0 mi Calm Calm - N/A   Clear
6:30 AM 3.2 °F - -0.4 °F 85% 29.65 in 7.0 mi Calm Calm - N/A   Mostly Cloudy
6:55 AM 3.2 °F -4.2 °F -0.4 °F 85% 29.69 in 7.0 mi East 3.5 mph - N/A   Mostly Cloudy
7:55 AM 5.0 °F - -0.4 °F 78% 29.72 in 7.0 mi Calm Calm - N/A   Overcast
8:55 AM 6.8 °F - 1.4 °F 79% 29.75 in 7.0 mi NNE 2.3 mph - N/A   Overcast
9:20 AM 6.8 °F - 1.4 °F 79% 29.72 in 7.0 mi NE 2.3 mph - N/A Snow Light Snow
9:55 AM 8.6 °F 2.0 °F 1.4 °F 73% 29.77 in 5.0 mi East 3.5 mph - N/A Snow Light Snow
10:55 AM 8.6 °F 2.0 °F 5.0 °F 85% 29.80 in 3.0 mi East 3.5 mph - N/A Snow Light Snow
11:30 AM 8.6 °F - 5.0 °F 85% 29.78 in 2.0 mi East 2.3 mph - N/A Snow Light Snow
11:45 AM 10.4 °F 4.0 °F 3.2 °F 73% 29.78 in 1.2 mi ESE 3.5 mph - N/A Snow Light Snow
11:55 AM 10.4 °F 4.0 °F 3.2 °F 73% 29.84 in 1.2 mi SE 3.5 mph - N/A Snow Light Snow
12:55 PM 10.4 °F - 6.8 °F 85% 29.86 in 1.2 mi Calm Calm - N/A Snow Light Snow
1:12 PM 10.4 °F - 6.8 °F 85% 29.82 in 1.8 mi Calm Calm - N/A Snow Light Snow
1:25 PM 10.4 °F - 6.8 °F 85% 29.82 in 2.0 mi Calm Calm - N/A Snow Light Snow
1:45 PM 10.4 °F 4.0 °F 6.8 °F 85% 29.83 in 2.5 mi West 3.5 mph - N/A Snow Light Snow
1:55 PM 10.4 °F 4.0 °F 6.8 °F 85% 29.87 in 2.5 mi WNW 3.5 mph - N/A Snow Light Snow
2:47 PM 10.4 °F - 6.8 °F 85% 29.85 in 3.0 mi Calm Calm - N/A Snow Light Snow
2:55 PM 10.4 °F - 6.8 °F 85% 29.89 in 3.0 mi Calm Calm - N/A Snow Light Snow
3:55 PM 10.4 °F - 6.8 °F 85% 29.91 in 4.0 mi Calm Calm - N/A Snow Light Snow
4:16 PM 10.4 °F - 6.8 °F 85% 29.88 in 1.5 mi Calm Calm - N/A Snow Light Snow
4:26 PM 10.4 °F - 6.8 °F 85% 29.88 in 1.2 mi Calm Calm - N/A Snow Light Snow
4:55 PM 10.4 °F - 6.8 °F 85% 29.93 in 1.2 mi Calm Calm - N/A Snow Light Snow
5:20 PM 12.2 °F - 8.6 °F 85% 29.90 in 2.0 mi Calm Calm - N/A Snow Light Snow
5:55 PM 12.2 °F - 6.8 °F 79% 29.94 in 2.0 mi Calm Calm - N/A Snow Light Snow
6:55 PM 10.4 °F - 8.6 °F 92% 29.97 in 3.0 mi Calm Calm - N/A Snow Light Snow
7:55 PM 10.4 °F - 8.6 °F 92% 29.98 in 3.0 mi Calm Calm - N/A Snow Light Snow
8:55 PM 10.4 °F - 8.6 °F 92% 30.00 in 3.0 mi Calm Calm - N/A Snow Light Snow
10:47 PM 6.8 °F - 1.4 °F 79% 29.99 in 4.0 mi Calm Calm - 0.00 in Snow Light Snow
10:54 PM 6.8 °F - 3.2 °F 85% 29.99 in 4.0 mi Calm Calm - 0.00 in Snow Light Snow
10:56 PM 6.1 °F - 3.0 °F 87% 30.03 in 5.0 mi Calm Calm - 0.00 in Snow Light Snow
11:56 PM 3.0 °F - -0.0 °F 87% 30.04 in 10.0 mi Calm Calm - 0.00 in   Overcast